Location: *
(51.5000°N, 0.1100°W)
Time: 20:52:52
(UTC+00:00)

CZ-2C R/B - Pass Details

Date: 25 May 2024
Orbit: 784 x 868 km, 98.3° (Epoch: 16 June)

Event Time Altitude Azimuth Distance (km) Brightness Sun altitude
Exits shadow 01:50:37 - 161° (SSE) 2,515 4.8 -13.4°
Reaches altitude 10° 01:51:03 10° 161° (SSE) 2,338 4.6 -13.3°
Maximum altitude 01:56:13 85° 73° (ENE) 796 2.6 -12.9°
Drops below altitude 10° 02:01:27 10° 346° (NNW) 2,370 5.7 -12.6°
Sets 02:03:48 0° 346° (NNW) 3,312 6.5 -12.4°
